Tracking 31027 objects as of 19-Jul-2025
HD Live streaming from Space Station
objects crossing your sky now

STARLINK-11091

Track STARLINK-11091 now!
10-day predictions


NORAD ID: 61207
Int'l Code: 2024-171H
Perigee: 366.0 km
Apogee: 367.7 km
Inclination: 53.2 °
Period: 91.7 minutes
Semi major axis: 6737 km
RCS: Unknown
Launch date: September 20, 2024
Source: United States (US)
Launch site: AIR FORCE WESTERN TEST RANGE (AFWTR)
Your satellite tracking list
ICEYE-X27
Track 1 satellite(s)




NASA's NSSDC Master Catalog

Two Line Element Set (TLE):
1 61207U 24171H   25199.85542267 -.00000347  00000-0  19983-5 0  9996
2 61207  53.1595 248.8876 0001234  92.4683 267.6476 15.69708834 47674
Source of the keplerian elements: AFSPC